Home   Weather   Monthey   Past weeks

Flag for Switzerland Past Weather in Monthey, Valais, Switzerland — Yesterday and Last 2 Weeks

Now
24 °F

Fog.


Feels Like: N/A
Forecast: 23 / 40 °F
Wind: N/A

Location: Aigle

Current Time: Jan 22, 2017 at 5:00:26 am

Latest Report: Jan 22, 2017 at 4:00 am


Visibility: 4 mi

Pressure: 30.36 "Hg

Humidity: 100%

Dew Point: 24 °F

Location of MontheyLocation

Past Weather in Monthey — Graph

°F

Monthey Temperature Yesterday

Maximum temperature yesterday: 32 °F (at 2:00 pm)
Minimum temperature yesterday: 7 °F (at 8:00 am)
Average temperature yesterday: 16 °F

High & Low Weather Summary for the Past Weeks

 TemperatureHumidityPressure
High46 °F (Jan 13, 2:00 am)100% (Jan 8, 6:00 pm)30.66 "Hg (Jan 8, 6:00 pm)
Low3 °F (Jan 18, 9:00 am)47% (Jan 13, 3:00 am)29.67 "Hg (Jan 13, 12:00 am)
Average25 °F86%30.28 "Hg
* Reported Jan 7 3:00 am — Jan 22 3:00 am, Monthey, Weather by CustomWeather, © 2017

Note: Actual official high and low records may vary slightly from our data, if they occured in-between our weather recording intervals... More about our weather records

Advertising

Monthey Weather History for the Previous 24 Hours

Scroll right to see more
 ConditionsComfort  
Time TempWeatherWind HumidityBarometerVisibility
3:00 am
Sun, Jan 22
22 °FCold.N/A100%30.37 "HgN/A
2:00 am23 °FCold.N/A98%30.37 "HgN/A
1:00 am22 °FCold.N/A98%30.39 "HgN/A
12:00 am20 °FCold.N/A98%30.41 "HgN/A
11:00 pm
Sat, Jan 21
15 °FCold.N/A100%30.42 "HgN/A
10:00 pm13 °FCold.N/A100%30.43 "HgN/A
9:00 pm15 °FCold.N/A100%30.42 "HgN/A
8:00 pm15 °FCold.N/A100%30.42 "HgN/A
7:00 pm14 °FFog.N/A100%30.41 "Hg5 mi
6:00 pm17 °FCold.N/A100%30.40 "HgN/A
5:00 pm20 °FCold.N/A100%30.39 "HgN/A
4:00 pm24 °FFog.2 mph88%30.39 "Hg5 mi
3:00 pm31 °FChilly.2 mph81%30.37 "HgN/A
2:00 pm32 °FChilly.3 mph78%30.38 "HgN/A
1:00 pm29 °FFog.1 mph83%30.41 "Hg4 mi
12:00 pm25 °FChilly.1 mph86%30.45 "HgN/A
11:00 am23 °FCold.3 mph90%30.47 "HgN/A
10:00 am11 °FFog.1 mph100%30.51 "Hg4 mi
9:00 am14 °FCold.2 mph92%30.50 "HgN/A
8:00 am7 °FFrigid.1 mph100%30.53 "HgN/A
7:00 am7 °FFog.2 mph96%30.52 "Hg2 mi
6:00 am12 °FCold.1 mph100%30.51 "HgN/A
5:00 am11 °FCold.2 mph91%30.52 "HgN/A
Weather by CustomWeather, © 2017

See weather overviewHow to use our weather pages